TimeMDT,TemperatureF,Dew PointF,Humidity,Sea Level PressureIn,VisibilityMPH,Wind Direction,Wind SpeedMPH,Gust SpeedMPH,PrecipitationIn,Events,Conditions,WindDirDegrees,DateUTC
12:53 AM,37.0,30.0,76,29.83,10.0,West,4.6,-,N/A,,Overcast,280,2013-09-27 06:53:00
1:53 AM,37.9,30.0,73,29.83,10.0,Calm,Calm,-,N/A,,Mostly Cloudy,0,2013-09-27 07:53:00
2:53 AM,33.1,28.9,85,29.86,10.0,WNW,5.8,-,N/A,,Clear,290,2013-09-27 08:53:00
3:53 AM,35.1,30.0,82,29.86,10.0,Calm,Calm,-,N/A,,Clear,0,2013-09-27 09:53:00
4:53 AM,34.0,30.0,85,29.89,10.0,Calm,Calm,-,N/A,,Overcast,0,2013-09-27 10:53:00
5:53 AM,30.9,28.0,89,29.94,10.0,North,4.6,-,N/A,,Clear,10,2013-09-27 11:53:00
6:53 AM,30.0,28.0,92,29.98,10.0,Calm,Calm,-,N/A,,Partly Cloudy,0,2013-09-27 12:53:00
7:53 AM,30.0,27.0,88,30.02,10.0,Calm,Calm,-,N/A,,Mostly Cloudy,0,2013-09-27 13:53:00
8:53 AM,37.0,33.1,86,30.01,10.0,Calm,Calm,-,N/A,,Clear,0,2013-09-27 14:53:00
9:53 AM,43.0,33.1,68,30.01,10.0,Calm,Calm,-,N/A,,Clear,0,2013-09-27 15:53:00
10:53 AM,48.0,30.0,50,30.01,10.0,North,9.2,-,N/A,,Clear,360,2013-09-27 16:53:00
11:53 AM,50.0,28.0,43,30.02,10.0,NNE,11.5,-,N/A,,Partly Cloudy,20,2013-09-27 17:53:00
12:53 PM,52.0,25.0,35,30.03,10.0,NNE,12.7,16.1,N/A,,Scattered Clouds,30,2013-09-27 18:53:00
1:53 PM,54.0,26.1,34,30.03,10.0,NE,6.9,-,N/A,,Mostly Cloudy,40,2013-09-27 19:53:00
2:53 PM,55.0,24.1,30,30.04,10.0,NE,9.2,-,N/A,,Partly Cloudy,50,2013-09-27 20:53:00
3:53 PM,55.9,23.0,28,30.04,10.0,NE,4.6,-,N/A,,Clear,40,2013-09-27 21:53:00
4:53 PM,55.9,23.0,28,30.05,10.0,North,6.9,-,N/A,,Partly Cloudy,350,2013-09-27 22:53:00
5:53 PM,55.0,21.9,28,30.07,10.0,NNE,6.9,19.6,N/A,,Clear,20,2013-09-27 23:53:00
6:53 PM,53.1,23.0,31,30.09,10.0,NNE,8.1,-,N/A,,Clear,20,2013-09-28 00:53:00
7:53 PM,44.1,24.1,45,30.14,10.0,NE,5.8,-,N/A,,Clear,40,2013-09-28 01:53:00
8:53 PM,41.0,24.1,51,30.15,10.0,NE,5.8,-,N/A,,Clear,40,2013-09-28 02:53:00
9:53 PM,43.0,21.9,43,30.13,10.0,Calm,Calm,-,N/A,,Clear,0,2013-09-28 03:53:00
10:53 PM,36.0,24.1,62,30.15,10.0,SSW,3.5,-,N/A,,Clear,200,2013-09-28 04:53:00
11:53 PM,35.1,23.0,61,30.17,10.0,Calm,Calm,-,N/A,,Clear,0,2013-09-28 05:53:00